Location: Cornospital
(48.0620°N, 3.3837°W)
Time: 20:08:06
(UTC+00:00)

Cosmos 1536 Rocket - Pass Details

Date: 17 June 2021
Orbit: 604 x 633 km, 82.5° (Epoch: 03 August)

Event Time Altitude Azimuth Distance (km) Brightness Sun altitude
Exits shadow 22:52:10 14° 214° (SSW) 1,779 5.6 -16.2°
Maximum altitude 22:55:50 45° 284° (WNW) 860 4.5 -16.4°
Drops below altitude 10° 23:00:09 10° 358° (N) 2,016 7.4 -16.6°
Sets 23:02:28 0° 5° (N) 2,924 8.3 -16.7°
